CW0028 Weather Reports


time (UTC)temp
F
wind
direction
speed
knots
gust
knots
rain 1hr
in
rain 24hr
in
rain mn
in
humidity
%
barometer
mb
20260504202519 67 175 5.2 13.0 0.00 0.00 0.00 37 1010.3
20260504202055 68 119 4.3 13.0 0.00 0.00 0.00 38 1010.3
20260504201607 68 202 3.5 13.9 0.00 0.00 0.00 37 1010.4
20260504201002 68 114 4.3 13.9 0.00 0.00 0.00 36 1010.5
20260504200507 69 227 5.2 13.0 0.00 0.00 0.00 36 1010.5
20260504200053 69 78 3.5 12.2 0.00 0.00 0.00 37 1010.5
20260504195556 69 219 4.3 12.2 0.00 0.00 0.00 35 1010.4
20260504195017 69 81 6.1 13.9 0.00 0.00 0.00 35 1010.5
20260504194603 69 159 6.1 13.0 0.00 0.00 0.00 34 1010.5
20260504194018 69 131 3.5 13.0 0.00 0.00 0.00 35 1010.6
20260504193554 69 190 4.3 15.6 0.00 0.00 0.00 34 1010.6
20260504193059 70 126 7.8 15.6 0.00 0.00 0.00 32 1010.8
20260504192502 70 129 3.5 14.8 0.00 0.00 0.00 34 1010.7
20260504192006 70 181 3.5 13.9 0.00 0.00 0.00 32 1010.8
20260504191509 70 155 6.1 16.5 0.00 0.00 0.00 32 1010.8
20260504191053 70 123 3.5 16.5 0.00 0.00 0.00 32 1010.7
20260504190600 71 163 6.1 13.0 0.00 0.00 0.00 33 1010.8
20260504190005 71 167 4.3 10.4 0.00 0.00 0.00 32 1010.8
20260504185506 71 115 3.5 15.6 0.00 0.00 0.00 31 1010.7
20260504185010 71 179 5.2 15.6 0.00 0.00 0.00 30 1010.8
20260504184602 72 180 6.1 13.9 0.00 0.00 0.00 28 1010.9
20260504184058 71 240 4.3 17.4 0.00 0.00 0.00 29 1010.9
20260504183600 71 172 6.1 13.0 0.00 0.00 0.00 29 1010.8
20260504183003 70 254 4.3 13.9 0.00 0.00 0.00 28 1011.0
20260504182510 69 41 6.1 13.9 0.00 0.00 0.00 28 1011.0
20260504182011 69 123 5.2 13.0 0.00 0.00 0.00 28 1011.0
20260504181555 69 111 3.5 16.5 0.00 0.00 0.00 29 1011.1
20260504181018 69 180 4.3 16.5 0.00 0.00 0.00 28 1011.3
20260504180556 69 220 6.1 15.6 0.00 0.00 0.00 30 1011.1
20260504180019 69 169 6.1 15.6 0.00 0.00 0.00 27 1011.2
20260504175554 69 104 6.1 19.1 0.00 0.00 0.00 28 1011.2
20260504175059 70 134 4.3 13.9 0.00 0.00 0.00 29 1011.2
20260504174518 69 259 2.6 14.8 0.00 0.00 0.00 28 1011.3
20260504174055 69 159 5.2 13.0 0.00 0.00 0.00 30 1011.2
20260504173603 69 90 5.2 12.2 0.00 0.00 0.00 30 1011.4
20260504173011 68 233 4.3 12.2 0.00 0.00 0.00 29 1011.3
20260504172506 69 76 7.0 12.2 0.00 0.00 0.00 28 1011.4
20260504172009 68 192 2.6 12.2 0.00 0.00 0.00 31 1011.4
20260504171554 68 234 4.3 12.2 0.00 0.00 0.00 31 1011.7
20260504171016 68 298 4.3 13.9 0.00 0.00 0.00 29 1011.8
20260504170556 68 150 7.0 13.0 0.00 0.00 0.00 29 1011.8
20260504151056 65 131 7.8 18.2 0.00 0.00 0.00 27 1013.1
20260504150600 66 203 3.5 15.6 0.00 0.00 0.00 29 1013.2
20260504141022 63 192 4.3 11.3 0.00 0.00 0.00 33 1013.4
20260504140554 63 150 4.3 13.9 0.00 0.00 0.00 36 1013.4
20260504130552 59 267 5.2 12.2 0.00 0.00 0.00 39 1014.0
20260504110502 45 232 0.9 5.2 0.00 0.00 0.00 57 1014.3
20260504100502 44 112 0.9 5.2 0.00 0.00 0.00 53 1014.1
20260504081556 44 140 1.7 5.2 0.00 0.00 0.00 53 1013.4
20260504081058 44 180 0.9 3.5 0.00 0.00 0.00 53 1013.4
20260504080503 44 167 0.0 3.5 0.00 0.00 0.00 54 1013.4
20260504060106 42 196 1.7 7.0 0.00 0.00 0.00 58 1013.0
20260504050558 41 158 0.0 2.6 0.00 0.00 0.00 58 1012.8
20260504050004 41 248 0.9 2.6 0.00 0.00 0.00 58 1013.0
20260504045507 41 150 0.9 3.5 0.00 0.00 0.00 58 1012.9
20260504045053 41 205 0.9 3.5 0.00 0.00 0.00 57 1012.9
20260504044556 41 136 0.0 1.7 0.00 0.00 0.00 57 1012.9
20260504044002 41 229 0.0 4.3 0.00 0.00 0.00 57 1012.9
20260504043504 41 229 0.9 4.3 0.00 0.00 0.00 57 1012.8
20260504043010 41 180 0.0 0.9 0.00 0.00 0.00 57 1012.7
20260504042510 41 180 0.0 1.7 0.00 0.00 0.00 57 1012.8
20260504042051 41 180 0.0 1.7 0.00 0.00 0.00 57 1012.7
20260504041555 41 180 0.0 0.9 0.00 0.00 0.00 57 1012.7
20260504041020 41 180 0.0 1.7 0.00 0.00 0.00 57 1012.7
20260504040556 41 180 0.0 1.7 0.00 0.00 0.00 57 1012.6
20260504040103 41 180 0.0 1.7 0.00 0.00 0.00 58 1012.6
20260504035507 41 180 0.0 1.7 0.00 0.00 0.00 58 1012.6
20260504035010 41 180 0.0 1.7 0.00 0.00 0.00 58 1012.6
20260504034604 41 278 0.0 0.0 0.00 0.00 0.00 58 1012.6
20260504034056 41 278 0.0 0.0 0.00 0.00 0.00 58 1012.6
20260504033501 42 278 0.0 0.0 0.00 0.00 0.00 58 1012.5
20260504033003 42 278 0.0 0.0 0.00 0.00 0.00 58 1012.5
20260504032509 42 278 0.0 0.0 0.00 0.00 0.00 58 1012.5
20260504032012 42 278 0.0 0.0 0.00 0.00 0.00 58 1012.5
20260504031606 42 278 0.0 0.0 0.00 0.00 0.00 57 1012.6
20260504031056 42 278 0.0 0.0 0.00 0.00 0.00 57 1012.5
20260504030502 43 278 0.0 0.0 0.00 0.00 0.00 57 1012.5
20260504030008 43 278 0.0 0.0 0.00 0.00 0.00 56 1012.4
20260504025551 43 278 0.0 0.0 0.00 0.00 0.00 56 1012.4
20260504025057 43 278 0.0 0.0 0.00 0.00 0.00 55 1012.4
20260504024526 43 278 0.0 0.0 0.00 0.00 0.00 55 1012.4
20260504024055 44 278 0.0 0.0 0.00 0.00 0.00 54 1012.5
20260504023557 44 278 0.0 0.0 0.00 0.00 0.00 54 1012.5
20260504023003 44 278 0.0 0.0 0.00 0.00 0.00 53 1012.5
20260504022505 44 278 0.0 0.0 0.00 0.00 0.00 53 1012.6
20260504022010 44 278 0.0 0.0 0.00 0.00 0.00 52 1012.6
20260504021556 45 278 0.0 0.0 0.00 0.00 0.00 52 1012.6
20260504021057 45 278 0.0 0.0 0.00 0.00 0.00 51 1012.6
20260504020504 45 278 0.0 0.0 0.00 0.00 0.00 51 1012.6
20260504020009 46 278 0.0 0.0 0.00 0.00 0.00 50 1012.6
20260504015056 46 278 0.0 0.0 0.00 0.00 0.00 49 1012.5
20260504014600 46 278 0.0 0.0 0.00 0.00 0.00 49 1012.5
20260504014003 47 278 0.0 0.0 0.00 0.00 0.00 48 1012.5
20260504013506 47 278 0.0 0.0 0.00 0.00 0.00 47 1012.4
20260504013010 47 278 0.0 0.0 0.00 0.00 0.00 47 1012.4
20260504012551 48 278 0.0 0.0 0.00 0.00 0.00 46 1012.2
20260504012056 48 278 0.0 0.0 0.00 0.00 0.00 45 1012.1
20260504011517 49 278 0.0 0.0 0.00 0.00 0.00 45 1012.2
20260504011013 49 278 0.0 0.0 0.00 0.00 0.00 44 1012.0
20260504010555 49 278 0.0 0.0 0.00 0.00 0.00 43 1012.0
20260504010058 50 278 0.0 0.0 0.00 0.00 0.00 42 1011.9
20260504005518 50 278 0.0 0.0 0.00 0.00 0.00 41 1011.8
20260504005053 50 278 0.0 0.0 0.00 0.00 0.00 41 1011.8
20260504004558 51 278 0.0 0.0 0.00 0.00 0.00 39 1011.8
20260504004002 51 278 0.0 0.0 0.00 0.00 0.00 39 1011.7
20260504003505 51 278 0.0 0.0 0.00 0.00 0.00 38 1011.7
20260504003006 52 278 0.0 0.0 0.00 0.00 0.00 37 1011.6
20260504002509 52 278 0.0 0.0 0.00 0.00 0.00 36 1011.5
20260504002054 52 278 0.0 0.0 0.00 0.00 0.00 35 1011.5
20260504001518 53 278 0.0 0.9 0.00 0.00 0.00 36 1011.3
20260504001058 53 278 0.0 0.9 0.00 0.00 0.00 35 1011.4
20260504000600 54 278 0.0 0.9 0.00 0.00 0.00 34 1011.3
20260504000005 54 278 0.0 0.9 0.00 0.00 0.00 33 1011.2
20260503235508 55 278 0.0 2.6 0.00 0.00 0.00 33 1011.2
20260503235054 55 278 0.0 2.6 0.00 0.00 0.00 32 1011.2
20260503234557 55 279 0.0 2.6 0.00 0.00 0.00 32 1011.2
20260503234017 55 279 0.9 6.1 0.00 0.00 0.00 30 1011.1
20260503233553 55 306 1.7 6.1 0.00 0.00 0.00 29 1010.9
20260503233100 56 294 0.9 6.1 0.00 0.00 0.00 27 1011.0
20260503232520 56 221 1.7 5.2 0.00 0.00 0.00 29 1010.9
20260503232055 56 250 1.7 7.0 0.00 0.00 0.00 27 1011.0
20260503231520 56 272 2.6 7.0 0.00 0.00 0.00 27 1010.8
20260503231019 56 261 1.7 5.2 0.00 0.00 0.00 26 1010.8
20260503230556 56 315 1.7 7.0 0.00 0.00 0.00 25 1010.7
20260503230059 57 291 2.6 7.8 0.00 0.00 0.00 25 1010.7
20260503225518 57 225 1.7 7.0 0.00 0.00 0.00 25 1010.6
20260503225054 57 313 2.6 7.0 0.00 0.00 0.00 24 1010.5
20260503224559 57 225 1.7 9.6 0.00 0.00 0.00 25 1010.6
20260503224001 57 311 5.2 9.6 0.00 0.00 0.00 25 1010.6
20260503223507 57 330 2.6 12.2 0.00 0.00 0.00 23 1010.6
20260503223009 57 34 5.2 14.8 0.00 0.00 0.00 22 1010.6
20260503222550 57 293 3.5 14.8 0.00 0.00 0.00 22 1010.5
20260503222054 57 355 5.2 10.4 0.00 0.00 0.00 22 1010.4
20260503221519 57 127 2.6 12.2 0.00 0.00 0.00 22 1010.5
20260503221016 58 296 4.3 13.9 0.00 0.00 0.00 22 1010.5
20260503220554 58 319 7.8 15.6 0.00 0.00 0.00 21 1010.5
20260503220022 58 355 5.2 15.6 0.00 0.00 0.00 25 1010.5
20260503215557 58 259 7.0 14.8 0.00 0.00 0.00 23 1010.6
20260503215057 58 5 3.5 14.8 0.00 0.00 0.00 24 1010.6
20260503214503 58 296 4.3 13.0 0.00 0.00 0.00 23 1010.5
20260503214004 58 30 4.3 13.0 0.00 0.00 0.00 24 1010.5
20260503213508 58 273 5.2 13.0 0.00 0.00 0.00 24 1010.4
20260503213053 58 296 3.5 11.3 0.00 0.00 0.00 23 1010.3
20260503212556 58 283 7.0 12.2 0.00 0.00 0.00 25 1010.3
20260503212100 58 214 3.5 13.0 0.00 0.00 0.00 23 1010.4
20260503211504 58 329 3.5 10.4 0.00 0.00 0.00 25 1010.4
20260503211008 58 328 0.9 9.6 0.00 0.00 0.00 26 1010.4
20260503210551 58 315 3.5 11.3 0.00 0.00 0.00 24 1010.4
20260503210057 58 205 5.2 14.8 0.00 0.00 0.00 23 1010.3
20260503205519 58 210 4.3 17.4 0.00 0.00 0.00 23 1010.3
20260503205057 58 229 7.0 17.4 0.00 0.00 0.00 21 1010.3
20260503204558 58 223 5.2 18.2 0.00 0.00 0.00 23 1010.4
20260503204001 58 209 3.5 17.4 0.00 0.00 0.00 23 1010.3
20260503203508 58 294 7.0 15.6 0.00 0.00 0.00 24 1010.3
20260503203008 58 300 4.3 14.8 0.00 0.00 0.00 24 1010.3
20260503202553 58 296 7.0 19.1 0.00 0.00 0.00 23 1010.4